Regional Weather Roundup
Issued by NWS

Home | Current Version | Previous Version | Graphics & Text | Print | Product List | Glossary On
Versions: 1 2 3 4 5 6 7 8 9 10 11 12 13 14 15 16 17 18 19 20 21 22 23 24 25 26 27 28 29 30 31 32 33 34 35 36 37 38 39 40 41 42 43 44 45 46 47 48 49 50
327
ASUS44 KJAN 010803
RWRMS

MISSISSIPPI HOURLY WEATHER ROUNDUP
NATIONAL WEATHER SERVICE JACKSON MS
300 AM CDT FRI AUG 01 2014

NOTE: "FAIR: INDICATES FEW OR NO CLOUDS BELOW 12,000 FEET WITH NO
SIGNIFICANT WEATHER AND/OR OBSTRUCTIONS TO VISIBILITY.

MSZ001>002-007>008-010>013-018>021-025>028-034>036-010900-
NORTHWEST MISSISSIPPI

CITY           SKY/WX    TMP DP  RH WIND       PRES   REMARKS
CLARKSDALE     CLOUDY    68  68 100 CALM      30.04F
CLEVELAND      FAIR      70  69  97 CALM      30.02S
GREENWOOD      PTCLDY    69  67  93 CALM      30.02S FOG
GREENVILLE     CLOUDY    71  68  90 CALM      30.01F FOG
GRENADA        FAIR      68  68 100 CALM      30.03S
OLIVE BRANCH   MOCLDY    70  70 100 CALM      30.06S
OXFORD         FAIR      68  66  94 CALM      30.05F
TUNICA         DRIZZLE   70  66  88 W3        30.06R
$$

MSZ003>006-009-014>017-022>024-029>033-037>039-010900-
NORTHEAST MISSISSIPPI

CITY           SKY/WX    TMP DP  RH WIND       PRES   REMARKS
BELMONT        FAIR      64  64  97 CALM      30.04F
COLUMBUS AFB   MOCLDY    67  67  99 NE1       30.02F
CORINTH        FAIR      66  64  94 CALM      30.04F FOG
GOLDN TRIANGLE MOCLDY    66  63  88 NW3       30.03S
STARKVILLE     FAIR      64  63  94 CALM      30.02F FOG
TUPELO         CLOUDY    69  66  90 NE8       30.03F
$$

MSZ040-058-010900-
CENTRAL MISSISSIPPI

CITY           SKY/WX    TMP DP  RH WIND       PRES   REMARKS
JACKSON INTL   CLOUDY    73  66  78 CALM      30.01S
JACKSON HAWKNS CLOUDY    75  63  66 CALM      30.01F
MERIDIAN KEY   MOCLDY    66  63  90 N3        30.00F
MERIDIAN NAS   MOCLDY    66  63  90 CALM      30.01F
RAYMOND        PTSUNNY   70  64  83 CALM      30.01S HAZE
VICKSBURG      LGT RAIN  73  69  87 NE9       29.99F
$$

MSZ059>079-010900-
SOUTH MISSISSIPPI

CITY           SKY/WX    TMP DP  RH WIND       PRES   REMARKS
BROOKHAVEN     FAIR      70  68  94 CALM      30.01F
COLUMBIA       PTSUNNY   70  68  94 CALM      29.99S
HATTIESBURG    CLOUDY    72  69  90 CALM      30.00F
MCCOMB         CLOUDY    72  65  78 CALM      30.00S
NATCHEZ        CLOUDY    72  64  78 E5        29.99F
PINE BELT      CLOUDY    72  66  83 CALM      30.02S
$$

MSZ080>082-010900-
COASTAL MISSISSIPPI

CITY           SKY/WX    TMP DP  RH WIND       PRES   REMARKS
BILOXI         CLOUDY    74  68  79 NE5       29.98S
PASCAGOULA     PTCLDY    68  67  96 CALM      29.98S
GULFPORT       CLOUDY    77  66  68 N6        29.98S
$$



USA.gov is the U.S. government's official web portal to all federal, state and local government web resources and services.